{"data":{"norad_id":65646,"intl_designator":"2025-210AA","name":"STARLINK-35183","alt_names":[],"object_type":"PAYLOAD","status":"ACTIVE","operator":null,"country":"US","launch_date":"2025-09-18","launch_site_code":"AFETR","launch_vehicle":null,"mission":null,"orbit_class":"UNKNOWN","rcs_meters":null,"size_class":null,"mass_kg":null,"dimensions":null,"purposes":["comms"],"wikipedia_slug":null,"has_3d_model":false,"image_url":null,"decayed_at":null,"tle_current":{"epoch":"2026-05-24T21:13:21.523296Z","epoch_age_seconds":78883,"freshness":"FRESH","line1":"1 65646U 25210AA  26144.88427689  .00021359  00000+0  73117-3 0  9997","line2":"2 65646  53.1584 313.3826 0001006  79.0630 281.0483 15.30201691 39391","mean_motion":15.30201691,"eccentricity":0.0001006,"inclination_deg":53.1584,"raan_deg":313.3826,"arg_perigee_deg":79.063,"mean_anomaly_deg":281.0483,"bstar":0.00073117,"rev_number":3939,"period_min":94.105241712218,"perigee_km":474.52057369253,"apogee_km":475.89946711303,"semimajor_km":6853.3470204028,"source":"CELESTRAK","updated_at":"2026-05-25T13:38:20.886377Z"}}}